SUMUSBPA

Guest
Details From SUMU - Montevideo Carrasco Intl
To SBPA - Salgado Filho
Flight Number -
Tags Generated
Created
Modified
Stats Distance 381 nm / 706 km
Max Altitude 0 ft / 0 m
Waypoints 3
Social Downloads 3
Likes 0
Share VATSIM

Download

Looking for another format? Having issues loading an existing format? Contact us
Advertisement - Login to hide

Notes

Generated

Route

SUMU IA SBPA

ID Type Via Altitude Latitude Longitude Leg Dist Tot Dist Heading (true) Name
O SUMU APT - 0 ft / 0 m -34.83742˚ -56.03572˚ - 0 nm - -
IA NDB - 0 ft / 0 m -29.99400˚ -51.19583˚ 380 nm 380 nm 41° / 39° PESTANA NDB
O SBPA APT - 0 ft / 0 m -29.99414˚ -51.18327˚ 0 nm 381 nm 91° / 91° -

Altitude Profile

Advertisement - Login to hide

Weather


0- 5 10 15 20 25 30 35+ Temperature / ° C

Clouds and Precipitation
Forecast for 2017-12-18 12:00 UTC. Updated 2 hours ago

Ground ~20,000 ft ~40,000 ft Winds

SUMU

Details ICAO SUMU (MVD)
Name Montevideo Carrasco Intl
Region Uruguay
Timezone America/Montevideo (UTC-3.0)
Stats Elevation 105 ft / 32 m (AMSL)
Location -34.834888° -56.027727°
Runways 3
Magnetic Variation 10.822° W

METAR

SUMU 181300Z 14004KT CAVOK 17/07 Q1024 NOSIG

Decode

TAF

TAF SUMU 181130Z 1812/1912 03010KT CAVOK TX22/1818Z TN12/1909Z BECMG 1814/1818 12015G25KT 9999 SCT025 BECMG 1900/1902 04015KT

Decode

Departure Runways

ID Width Length Bearing (true) Bearing (mag) Surface Threshold Offset Overrun Length
01 148 ft / 45 m 7,406 ft / 2,257 m 359.19° 10.01° Asphalt 300 ft / 91 m 195 ft / 59 m
06 148 ft / 45 m 10,497 ft / 3,199 m 53.24° 64.06° Asphalt 1,150 ft / 351 m 500 ft / 152 m
10 148 ft / 45 m 5,578 ft / 1,700 m 90.77° 101.59° Concrete 200 ft / 61 m 0 ft / 0 m
19 148 ft / 45 m 7,406 ft / 2,257 m 179.19° 190.01° Asphalt 300 ft / 91 m 190 ft / 58 m
24 148 ft / 45 m 10,497 ft / 3,199 m 233.23° 244.05° Asphalt 490 ft / 149 m 0 ft / 0 m
28 148 ft / 45 m 5,578 ft / 1,700 m 270.76° 281.58° Concrete 200 ft / 61 m 0 ft / 0 m

SBPA

Details ICAO SBPA (POA)
Name Salgado Filho
Region Brazil
Timezone America/Sao_Paulo (UTC-2.0)
Stats Elevation 11 ft / 3 m (AMSL)
Location -29.994428° -51.171426°
Runways 1
Magnetic Variation 16.880° W

METAR

SBPA 181300Z 13011KT 9999 OVC030 21/14 Q1021

Decode

TAF

Not found

Destination Runways

ID Width Length Bearing (true) Bearing (mag) Surface Threshold Offset Overrun Length
11 138 ft / 42 m 7,487 ft / 2,282 m 91.60° 108.48° Asphalt 0 ft / 0 m 230 ft / 70 m
29 138 ft / 42 m 7,487 ft / 2,282 m 271.59° 288.47° Asphalt 0 ft / 0 m 197 ft / 60 m

Approach Navaids

Runway Type Ident Frequency Range Bearing (true) Bearing (mag) Slope Elevation
11 Localiser IPA 110.30 MHz 18 nm / 33 km 90.92° 107.80° - 11 ft / 3 m (AMSL)
11 Glidescope IPA 110.30 MHz 10 nm / 19 km 91.60° 108.48° 3.00° 11 ft / 3 m (AMSL)

Popular Alternatives